FW6214 Weather Reports


Display with metric or nautical units.
time (UTC)temp
F
wind
direction
speed
MPH
gust
MPH
rain 1hr
in
rain 24hr
in
rain mn
in
humidity
%
barometer
mb
20260504070310 52 246 0.0 0.0 0.00 0.00 0.00 61 1018.4
20260504050314 52 248 0.0 3.0 0.00 0.00 0.00 60 1019.1
20260504045826 52 242 0.0 4.0 0.00 0.00 0.00 60 1019.1
20260504045308 52 243 0.0 2.0 0.00 0.00 0.00 60 1019.1
20260504044811 52 234 0.0 1.0 0.00 0.00 0.00 60 1019.0
20260504044313 52 249 0.0 1.0 0.00 0.00 0.00 60 1019.1
20260504043822 52 248 0.0 1.0 0.00 0.00 0.00 60 1019.1
20260504042813 52 243 0.0 0.0 0.00 0.00 0.00 60 1018.8
20260504042315 52 240 0.0 5.0 0.00 0.00 0.00 60 1018.9
20260504041823 52 236 1.0 8.0 0.00 0.00 0.00 60 1018.9
20260504041325 52 236 1.0 8.0 0.00 0.00 0.00 60 1019.0
20260504040832 52 223 0.0 0.0 0.00 0.00 0.00 61 1019.0
20260504040314 52 245 0.0 0.0 0.00 0.00 0.00 61 1019.0
20260504035817 52 239 0.0 0.0 0.00 0.00 0.00 60 1019.0
20260504035327 52 244 0.0 0.0 0.00 0.00 0.00 61 1018.9
20260504034808 52 245 0.0 0.0 0.00 0.00 0.00 62 1018.9
20260504034309 52 250 0.0 0.0 0.00 0.00 0.00 62 1018.8
20260504033837 52 248 0.0 0.0 0.00 0.00 0.00 62 1018.9
20260504033317 52 234 0.0 0.0 0.00 0.00 0.00 61 1018.8
20260504032819 52 240 0.0 0.0 0.00 0.00 0.00 60 1018.9
20260504032308 53 243 0.0 0.0 0.00 0.00 0.00 60 1018.9
20260504031808 53 239 0.0 0.0 0.00 0.00 0.00 59 1018.9
20260504031310 53 237 0.0 0.0 0.00 0.00 0.00 59 1018.9
20260504030819 53 238 0.0 0.0 0.00 0.00 0.00 59 1018.9
20260504030320 53 232 0.0 0.0 0.00 0.00 0.00 59 1019.0
20260504025849 53 238 0.0 0.0 0.00 0.00 0.00 58 1019.1
20260504024821 53 240 0.0 0.0 0.00 0.00 0.00 58 1019.0
20260504024322 53 248 0.0 0.0 0.00 0.00 0.00 58 1019.0
20260504023832 53 241 0.0 0.0 0.00 0.00 0.00 58 1019.1
20260504023314 53 236 0.0 0.0 0.00 0.00 0.00 58 1019.0
20260504022327 53 243 0.0 0.0 0.00 0.00 0.00 58 1018.9
20260504021811 54 245 0.0 0.0 0.00 0.00 0.00 58 1018.8
20260504021311 54 245 0.0 0.0 0.00 0.00 0.00 58 1018.7
20260504020822 54 251 0.0 0.0 0.00 0.00 0.00 58 1018.7
20260504020325 53 257 0.0 0.0 0.00 0.00 0.00 58 1018.7
20260504015855 53 256 0.0 0.0 0.00 0.00 0.00 58 1018.7
20260504015316 53 259 0.0 0.0 0.00 0.00 0.00 58 1018.7
20260504014819 53 259 0.0 0.0 0.00 0.00 0.00 58 1018.7
20260504014347 53 264 0.0 0.0 0.00 0.00 0.00 57 1018.7
20260504013809 53 298 0.0 0.0 0.00 0.00 0.00 58 1018.6
20260504013309 53 271 0.0 0.0 0.00 0.00 0.00 57 1018.6
20260504012837 53 290 0.0 0.0 0.00 0.00 0.00 57 1018.5
20260504012332 53 289 0.0 0.0 0.00 0.00 0.00 57 1018.4
20260504011815 53 289 0.0 0.0 0.00 0.00 0.00 57 1018.4
20260504011339 53 289 0.0 0.0 0.00 0.00 0.00 56 1018.3
20260504010828 53 290 0.0 0.0 0.00 0.00 0.00 56 1018.3
20260504010309 53 290 0.0 0.0 0.00 0.00 0.00 56 1018.3
20260504005813 53 280 0.0 0.0 0.00 0.00 0.00 56 1018.2
20260504005315 54 291 0.0 0.0 0.00 0.00 0.00 56 1018.2
20260504004824 54 289 0.0 0.0 0.00 0.00 0.00 55 1018.2
20260504004348 54 286 0.0 0.0 0.00 0.00 0.00 55 1018.2
20260504003836 54 285 0.0 0.0 0.00 0.00 0.00 56 1018.1
20260504003343 54 285 0.0 0.0 0.00 0.00 0.00 55 1018.0
20260504002826 54 293 0.0 0.0 0.00 0.00 0.00 54 1018.1
20260504002333 54 285 0.0 0.0 0.00 0.00 0.00 54 1018.1
20260504001814 55 277 0.0 0.0 0.00 0.00 0.00 53 1018.2
20260504001317 55 290 0.0 0.0 0.00 0.00 0.00 54 1018.2
20260504000820 55 290 0.0 0.0 0.00 0.00 0.00 53 1018.2
20260504000328 56 288 0.0 0.0 0.00 0.00 0.00 52 1018.2
20260503235811 56 285 0.0 0.0 0.00 0.00 0.00 53 1018.2
20260503235313 56 295 0.0 0.0 0.00 0.00 0.00 51 1018.2
20260503234815 57 276 0.0 0.0 0.00 0.00 0.00 53 1018.1
20260503234325 57 271 0.0 0.0 0.00 0.00 0.00 52 1018.1
20260503233848 57 255 0.0 0.0 0.00 0.00 0.00 50 1018.1
20260503233328 57 262 0.0 2.0 0.00 0.00 0.00 53 1018.0
20260503232809 58 238 0.0 0.0 0.00 0.00 0.00 50 1018.0
20260503232312 58 255 0.0 0.0 0.00 0.00 0.00 50 1018.1
20260503231820 58 247 0.0 0.0 0.00 0.00 0.00 49 1018.1
20260503231324 58 240 0.0 0.0 0.00 0.00 0.00 48 1018.1
20260503230826 58 255 0.0 0.0 0.00 0.00 0.00 49 1018.2
20260503230309 58 266 0.0 4.0 0.00 0.00 0.00 48 1018.2
20260503225815 59 252 0.0 4.0 0.00 0.00 0.00 47 1018.2
20260503225319 59 231 0.0 0.0 0.00 0.00 0.00 47 1018.2
20260503224820 60 239 0.0 0.0 0.00 0.00 0.00 45 1018.2
20260503224328 60 261 0.0 0.0 0.00 0.00 0.00 46 1018.2
20260503223810 60 277 0.0 0.0 0.00 0.00 0.00 47 1018.2
20260503223310 60 281 0.0 0.0 0.00 0.00 0.00 47 1018.3
20260503222821 60 242 0.0 0.0 0.00 0.00 0.00 45 1018.3
20260503222325 60 350 0.0 0.0 0.00 0.00 0.00 47 1018.3
20260503221810 60 262 0.0 0.0 0.00 0.00 0.00 45 1018.3
20260503221312 60 254 0.0 0.0 0.00 0.00 0.00 45 1018.4
20260503220822 60 240 0.0 0.0 0.00 0.00 0.00 45 1018.3
20260503220325 60 251 0.0 0.0 0.00 0.00 0.00 43 1018.3
20260503215828 60 267 0.0 0.0 0.00 0.00 0.00 42 1018.3
20260503215313 60 257 0.0 0.0 0.00 0.00 0.00 45 1018.4
20260503214842 60 252 0.0 0.0 0.00 0.00 0.00 42 1018.3
20260503214332 60 250 0.0 0.0 0.00 0.00 0.00 43 1018.3
20260503213812 60 255 0.0 0.0 0.00 0.00 0.00 44 1018.3
20260503213314 61 282 0.0 3.0 0.00 0.00 0.00 43 1018.4
20260503212823 61 253 0.0 3.0 0.00 0.00 0.00 46 1018.4
20260503212343 61 251 0.0 1.0 0.00 0.00 0.00 43 1018.3
20260503211827 61 255 0.0 1.0 0.00 0.00 0.00 43 1018.4
20260503211328 61 214 0.0 0.0 0.00 0.00 0.00 43 1018.5
20260503210814 61 243 0.0 0.0 0.00 0.00 0.00 44 1018.4
20260503210316 62 228 0.0 4.0 0.00 0.00 0.00 45 1018.5
20260503205824 62 250 0.0 4.0 0.00 0.00 0.00 41 1018.5
20260503205325 62 276 0.0 0.0 0.00 0.00 0.00 46 1018.6
20260503204832 62 255 0.0 0.0 0.00 0.00 0.00 42 1018.7
20260503204327 61 255 0.0 0.0 0.00 0.00 0.00 41 1018.7
20260503203810 60 261 0.0 0.0 0.00 0.00 0.00 43 1018.7
20260503203313 60 238 0.0 0.0 0.00 0.00 0.00 45 1018.8
20260503202823 60 258 0.0 3.0 0.00 0.00 0.00 42 1018.8
20260503202324 60 247 0.0 7.0 0.00 0.00 0.00 44 1018.9
20260503201826 61 258 1.0 7.0 0.00 0.00 0.00 41 1019.0
20260503201335 61 245 0.0 2.0 0.00 0.00 0.00 40 1019.0
20260503200815 61 259 0.0 2.0 0.00 0.00 0.00 42 1019.1
20260503200317 61 235 0.0 2.0 0.00 0.00 0.00 43 1019.1
20260503195845 61 255 0.0 1.0 0.00 0.00 0.00 48 1019.3
20260503195332 60 244 0.0 0.0 0.00 0.00 0.00 47 1019.4
20260503194815 60 242 0.0 5.0 0.00 0.00 0.00 42 1019.5
20260503194319 61 236 0.0 5.0 0.00 0.00 0.00 44 1019.6
20260503193847 60 223 0.0 5.0 0.00 0.00 0.00 46 1019.6
20260503193325 60 240 0.0 0.0 0.00 0.00 0.00 52 1019.6
20260503192835 59 250 0.0 0.0 0.00 0.00 0.00 52 1019.6
20260503192317 60 250 0.0 3.0 0.00 0.00 0.00 50 1019.6
20260503191816 60 241 0.0 3.0 0.00 0.00 0.00 51 1019.8
20260503191332 60 233 0.0 4.0 0.00 0.00 0.00 50 1019.8
20260503190813 59 245 0.0 4.0 0.00 0.00 0.00 51 1019.8
20260503190320 59 231 0.0 0.0 0.00 0.00 0.00 52 1019.9
20260503185843 58 252 0.0 0.0 0.00 0.00 0.00 52 1020.0
20260503185308 59 268 0.0 3.0 0.00 0.00 0.00 51 1020.1
20260503184810 59 246 0.0 5.0 0.00 0.00 0.00 54 1020.0
20260503184313 59 239 0.0 5.0 0.00 0.00 0.00 56 1020.1
20260503183822 58 249 0.0 0.0 0.00 0.00 0.00 52 1020.0
20260503183324 59 246 0.0 0.0 0.00 0.00 0.00 54 1020.1
20260503182854 58 262 0.0 0.0 0.00 0.00 0.00 53 1020.1
20260503182312 57 257 0.0 0.0 0.00 0.00 0.00 55 1020.1
20260503181812 58 253 0.0 0.0 0.00 0.00 0.00 55 1020.2
20260503181339 59 262 0.0 0.0 0.00 0.00 0.00 56 1020.2
20260503180819 58 238 0.0 0.0 0.00 0.00 0.00 54 1020.2
20260503180348 58 249 0.0 4.0 0.00 0.00 0.00 60 1020.1
20260503175854 57 264 0.0 4.0 0.00 0.00 0.00 56 1020.2
20260503175317 57 260 0.0 1.0 0.00 0.00 0.00 57 1020.2
20260503174821 57 246 0.0 0.0 0.00 0.00 0.00 58 1020.1
20260503174328 57 195 0.0 0.0 0.00 0.00 0.00 55 1020.3
20260503173832 58 257 0.0 0.0 0.00 0.00 0.00 52 1020.3
20260503173319 57 250 0.0 3.0 0.00 0.00 0.00 53 1020.3
20260503172815 57 260 0.0 3.0 0.00 0.00 0.00 51 1020.4
20260503172317 57 250 0.0 2.0 0.00 0.00 0.00 55 1020.4
20260503171821 56 241 0.0 2.0 0.00 0.00 0.00 54 1020.5
20260503171332 56 254 0.0 2.0 0.00 0.00 0.00 52 1020.5
20260503170813 56 242 0.0 1.0 0.00 0.00 0.00 52 1020.5
20260503170323 56 246 0.0 4.0 0.00 0.00 0.00 54 1020.6
20260503150814 53 249 0.0 0.0 0.00 0.00 0.00 53 1020.9
20260503150324 53 271 0.0 0.0 0.00 0.00 0.00 59 1020.8
20260503140312 47 43 0.0 0.0 0.00 0.00 0.00 67 1020.5
20260503131335 45 41 0.0 0.0 0.00 0.00 0.00 74 1020.0
20260503130816 45 41 0.0 0.0 0.00 0.00 0.00 75 1019.9
20260503130317 45 49 0.0 0.0 0.00 0.00 0.00 75 1019.9